"2010-12-25 00:00:00",452461,5.656,131,6.199,1.193,7.392,101.2441,2.474,3.599,50.35,0,109.7,13.53,3.23,93.0
"2010-12-25 00:00:30",452462,5.8,132.2,5.819,1.15,7.552,101.2285,2.434,3.596,50.44,0,109.6,13.53,3.19,94.2
"2010-12-25 00:01:00",452463,5.85,132.9,5.261,1.113,7.319,101.2175,2.406,3.562,50.55,0,109.7,13.53,3.17,94.9
"2010-12-25 00:01:30",452464,5.821,132,5.813,1.155,6.909,101.2155,2.401,3.519,50.66,0,109.6,13.53,3.16,94.0
"2010-12-25 00:02:00",452465,4.445,125.1,4.351,0.861,4.957,101.2147,2.399,3.473,50.7,0,109.6,13.53,3.16,87.1
"2010-12-25 00:02:30",452466,4.936,126.9,6.032,1.18,5.763,101.2144,2.398,3.442,50.69,0,109.6,13.53,3.16,88.9
"2010-12-25 00:03:00",452467,5.603,131,5.825,1.176,7.675,101.2167,2.404,3.528,50.78,0,109.6,13.53,3.16,93.0
"2010-12-25 00:03:30",452468,5.745,131.1,5.997,1.167,7.523,101.2155,2.401,3.507,50.81,0,109.6,13.53,3.16,93.1
"2010-12-25 00:04:00",452469,5.682,130.5,6.019,1.109,7.6,101.2158,2.402,3.538,50.94,0,109.6,13.53,3.16,92.5
"2010-12-25 00:04:30",452470,5.484,130.1,6.042,1.143,7.327,101.2164,2.403,3.457,50.69,0,109.6,13.53,3.16,92.1
"2010-12-25 00:05:00",452471,4.549,125.9,6.115,1.193,5.731,101.2158,2.402,3.364,50.53,0,109.6,13.53,3.16,87.9
"2010-12-25 00:05:30",452472,4.652,126.3,6.117,1.241,5.939,101.215,2.399,3.353,50.49,0,109.7,13.53,3.16,88.3
"2010-12-25 00:06:00",452473,5.422,131.8,5.624,1.095,7.55,101.2164,2.403,3.506,50.67,0,109.6,13.53,3.16,93.8
"2010-12-25 00:06:30",452474,5.354,131.7,5.451,1.159,7.374,101.2167,2.404,3.517,50.62,0,109.6,13.53,3.16,93.7
"2010-12-25 00:07:00",452475,5.542,131.9,5.763,1.057,7.54,101.2161,2.402,3.51,50.61,0,109.6,13.53,3.16,93.9
"2010-12-25 00:07:30",452476,4.192,124.9,4.959,1.118,5.101,101.2193,2.41,3.406,50.48,0,109.6,13.53,3.17,86.9
"2010-12-25 00:08:00",452477,5.675,133,5.034,0.932,7.91,101.219,2.41,3.46,50.49,0,109.6,13.53,3.17,95.0
"2010-12-25 00:08:30",452478,4.281,128.1,6.605,1.106,5.691,101.2224,2.418,3.389,50.37,0,109.6,13.53,3.18,90.1
"2010-12-25 00:09:00",452479,5.024,131.9,5.944,1.133,7.737,101.2337,2.447,3.543,50.53,0,109.6,13.53,3.21,93.9
"2010-12-25 00:09:30",452480,5.168,132.3,5.495,1.099,7.626,101.2521,2.494,3.491,50.43,0,109.7,13.53,3.25,94.3
"2010-12-25 00:10:00",452481,4.826,130,6.22,1.218,7.012,101.2561,2.504,3.562,50.56,0,109.6,13.53,3.27,92.0
"2010-12-25 00:10:30",452482,3.597,122.9,3.67,0.997,4.57,101.2564,2.505,3.414,50.43,0,109.6,13.53,3.27,84.9
"2010-12-25 00:11:00",452483,4.616,129.6,6.262,1.25,7.127,101.2592,2.512,3.517,50.52,0,109.6,13.53,3.27,91.6
"2010-12-25 00:11:30",452484,4.76,130.3,6.66,1.144,7.385,101.2742,2.55,3.46,50.42,0,109.6,13.54,3.31,92.3
"2010-12-25 00:12:00",452485,4.812,128.9,5.775,1.132,7.507,101.2883,2.587,3.618,50.56,0,109.6,13.54,3.35,90.9
"2010-12-25 00:12:30",452486,4.587,127.6,6.322,1.191,7.382,101.2903,2.592,3.67,50.49,0,109.6,13.54,3.35,89.6
"2010-12-25 00:13:00",452487,4.97,126.8,6.195,1.147,6.955,101.2903,2.592,3.619,50.23,0,109.6,13.54,3.35,88.8
"2010-12-25 00:13:30",452488,3.799,120.4,4.917,0.945,5.01,101.2903,2.592,3.576,50.06,0,109.6,13.54,3.35,82.4
"2010-12-25 00:14:00",452489,5.01,126.9,6.104,1.151,6.819,101.2903,2.592,3.528,50.03,0,109.6,13.54,3.35,88.9
"2010-12-25 00:14:30",452490,3.228,120.1,3.941,0.617,4.9,101.2903,2.592,3.605,50.33,0,109.6,13.54,3.35,82.1
"2010-12-25 00:15:00",452491,4.87,128.4,4.995,1.004,7.824,101.2934,2.6,3.638,50.58,0,109.6,13.54,3.36,90.4
"2010-12-25 00:15:30",452492,4.237,123.6,6.016,1.237,6.966,101.3079,2.636,3.705,50.74,0,109.6,13.54,3.40,85.6
"2010-12-25 00:16:00",452493,4.499,122.5,6.325,1.19,6.705,101.3237,2.677,3.731,50.71,0,109.6,13.54,3.44,84.5
"2010-12-25 00:16:30",452494,4.208,120.3,6.23,1.186,5.745,101.3243,2.678,3.558,50.26,0,109.6,13.54,3.44,82.3
"2010-12-25 00:17:00",452495,4.88,123.9,6.115,1.243,7.123,101.3243,2.678,3.735,50.08,0,109.6,13.54,3.44,85.9
"2010-12-25 00:17:30",452496,4.137,117.6,5.362,1.147,5.237,101.3243,2.678,3.606,49.88,0,109.6,13.54,3.44,79.6
"2010-12-25 00:18:00",452497,5.208,123,5.849,1.111,7.531,101.324,2.678,3.747,50.12,0,109.6,13.54,3.44,85.0
"2010-12-25 00:18:30",452498,5.237,121.2,5.952,1.103,7.395,101.3192,2.665,3.71,50.17,0,109.6,13.54,3.43,83.2
"2010-12-25 00:19:00",452499,5.03,118.1,6.424,1.235,6.45,101.3113,2.645,3.681,50.31,0,109.6,13.54,3.41,80.1
"2010-12-25 00:19:30",452500,4.437,115.4,6.727,1.199,5.904,101.3084,2.638,3.628,50.3,0,109.6,13.54,3.40,77.4
"2010-12-25 00:20:00",452501,5.115,117.4,6.124,1.183,7.338,101.307,2.634,3.715,50.48,0,109.6,13.54,3.40,79.4
"2010-12-25 00:20:30",452502,4.688,113.5,6.27,1.232,6.128,101.3064,2.633,3.577,50.39,0,109.6,13.54,3.39,75.5
"2010-12-25 00:21:00",452503,5.258,116.7,6.057,1.103,7.731,101.307,2.634,3.783,50.7,0,109.6,13.54,3.40,78.7
"2010-12-25 00:21:30",452504,5.129,116.9,5.668,1.152,7.274,101.3079,2.636,3.765,50.69,0,109.6,13.54,3.40,78.9
"2010-12-25 00:22:00",452505,3.811,109.9,4.804,1.035,4.665,101.3121,2.647,3.595,50.64,0,109.6,13.54,3.41,71.9
"2010-12-25 00:22:30",452506,4.202,112.5,6.264,1.211,5.752,101.3166,2.659,3.631,50.63,0,109.6,13.54,3.42,74.5
"2010-12-25 00:23:00",452507,5.107,115.4,6.373,1.044,7.375,101.3229,2.675,3.72,50.72,0,109.6,13.54,3.44,77.4
"2010-12-25 00:23:30",452508,3.831,111.6,5.49,1.195,5.451,101.3243,2.678,3.597,50.65,0,109.6,13.54,3.44,73.6
"2010-12-25 00:24:00",452509,4.89,113.5,6.242,1.218,6.801,101.3243,2.678,3.705,50.77,0,109.6,13.54,3.44,75.5
"2010-12-25 00:24:30",452510,4.955,112,6.148,1.134,7.485,101.3243,2.678,3.774,50.91,0,109.6,13.54,3.44,74.0
"2010-12-25 00:25:00",452511,4.202,107.2,5.964,1.224,5.709,101.3243,2.678,3.657,50.94,0,109.6,13.54,3.44,69.2
"2010-12-25 00:25:30",452512,4.126,106.2,7.049,1.27,5.967,101.3274,2.686,3.662,50.89,0,109.6,13.53,3.45,68.2
"2010-12-25 00:26:00",452513,4.863,110.8,5.872,1.164,7.347,101.3478,2.738,3.75,50.9,0,109.6,13.54,3.50,72.8
"2010-12-25 00:26:30",452514,3.267,103.1,4.084,0.648,5.055,101.3582,2.765,3.735,50.79,0,109.6,13.54,3.53,65.1
"2010-12-25 00:27:00",452515,4.449,106.9,6.873,1.243,7.303,101.3582,2.765,3.817,50.9,0,109.6,13.54,3.53,68.9
"2010-12-25 00:27:30",452516,4.739,110.7,5.511,1.002,7.539,101.3582,2.765,3.844,50.88,0,109.6,13.54,3.53,72.7
"2010-12-25 00:28:00",452517,3.918,105.3,6.586,1.214,5.758,101.3582,2.765,3.715,50.77,0,109.6,13.54,3.53,67.3
"2010-12-25 00:28:30",452518,4.11,104.6,6.299,1.258,5.981,101.3582,2.765,3.774,50.83,0,109.6,13.55,3.53,66.6
"2010-12-25 00:29:00",452519,4.522,105.8,6.332,1.206,7.487,101.365,2.782,3.863,50.96,0,109.6,13.55,3.54,67.8
"2010-12-25 00:29:30",452520,3.518,100.9,5.12,1.051,5.321,101.3735,2.804,3.71,50.82,0,109.6,13.55,3.57,62.9
"2010-12-25 00:30:00",452521,4.183,104.2,6.134,1.207,7.374,101.3809,2.823,3.961,51.02,0,109.6,13.55,3.58,66.2
"2010-12-25 00:30:30",452522,4.722,106.6,5.654,1.15,7.075,101.3899,2.846,3.85,50.85,0,109.6,13.55,3.61,68.6
"2010-12-25 00:31:00",452523,4.226,104.4,6.419,1.246,6.506,101.3896,2.845,3.831,50.79,0,109.6,13.55,3.61,66.4
"2010-12-25 00:31:30",452524,4.091,102.6,6.186,1.242,5.959,101.3911,2.849,3.825,50.8,0,109.6,13.55,3.61,64.6
"2010-12-25 00:32:00",452525,4.602,104.2,6.314,1.277,6.807,101.3891,2.844,3.902,50.83,0,109.6,13.55,3.61,66.2
"2010-12-25 00:32:30",452526,4.046,99.9,6.141,1.154,5.695,101.38,2.821,3.741,50.81,0,109.6,13.55,3.58,61.9
"2010-12-25 00:33:00",452527,3.797,99,5.3,0.954,5.082,101.3713,2.798,3.867,51.06,0,109.6,13.55,3.56,61.0
"2010-12-25 00:33:30",452528,5.352,105.5,5.95,1.014,7.608,101.3634,2.778,3.863,51.19,0,109.6,13.55,3.54,67.5
"2010-12-25 00:34:00",452529,4.966,99.1,6.391,1.256,6.421,101.3634,2.778,3.893,51.32,0,109.6,13.55,3.54,61.1
"2010-12-25 00:34:30",452530,4.952,99,6.801,1.201,6.548,101.3605,2.771,3.83,51.24,0,109.6,13.55,3.53,61.0
"2010-12-25 00:35:00",452531,5.388,101.9,5.678,1.173,7.63,101.3599,2.769,3.896,51.39,0,109.6,13.55,3.53,63.9
"2010-12-25 00:35:30",452532,5.428,100.2,5.978,1.176,7.202,101.3614,2.773,3.807,51.31,0,109.6,13.55,3.53,62.2
"2010-12-25 00:36:00",452533,4.12,94.8,5.725,0.867,5.279,101.3605,2.771,3.846,51.33,0,109.6,13.55,3.53,56.8
"2010-12-25 00:36:30",452534,5.27,100.3,6.367,1.146,7.103,101.3605,2.771,3.864,51.42,0,109.6,13.55,3.53,62.3
"2010-12-25 00:37:00",452535,4.812,99.7,6.681,1.232,6.747,101.3631,2.777,3.871,51.39,0,109.6,13.55,3.54,61.7
"2010-12-25 00:37:30",452536,4.385,97,6.191,1.168,5.627,101.3625,2.776,3.744,51.32,0,109.6,13.55,3.54,59.0
"2010-12-25 00:38:00",452537,5.313,101.3,5.912,1.125,7.762,101.3631,2.777,3.914,51.57,0,109.6,13.55,3.54,63.3
"2010-12-25 00:38:30",452538,5.151,100.1,6.216,1.174,6.979,101.3642,2.78,3.766,51.42,0,109.6,13.55,3.54,62.1
"2010-12-25 00:39:00",452539,3.618,93.2,3.313,0.744,4.275,101.3676,2.789,3.678,51.34,0,109.6,13.55,3.55,55.2
"2010-12-25 00:39:30",452540,4.693,99.5,6.343,1.258,6.681,101.3736,2.804,3.88,51.54,0,109.6,13.54,3.57,61.5
"2010-12-25 00:40:00",452541,5.04,102,5.545,1.141,7.617,101.3776,2.814,3.937,51.44,0,109.6,13.55,3.58,64.0
"2010-12-25 00:40:30",452542,4.503,100.1,6.44,1.216,6.672,101.3804,2.822,3.795,50.92,0,109.7,13.55,3.58,62.1
"2010-12-25 00:41:00",452543,4.607,102,6.173,1.233,7.24,101.3833,2.829,3.944,50.6,0,109.6,13.54,3.59,64.0
"2010-12-25 00:41:30",452544,4.884,103.8,6.02,1.077,7.737,101.3796,2.819,3.907,50.47,0,109.6,13.55,3.58,65.8
"2010-12-25 00:42:00",452545,3.322,96.7,3.084,0.763,4.353,101.373,2.803,3.712,50.16,0,109.6,13.55,3.56,58.7
"2010-12-25 00:42:30",452546,4.472,102.9,6.141,1.299,6.596,101.3722,2.801,3.923,50.42,0,109.6,13.55,3.56,64.9
"2010-12-25 00:43:00",452547,5.082,103.9,6.007,1.125,7.241,101.3688,2.792,3.894,50.45,0,109.6,13.55,3.55,65.9
"2010-12-25 00:43:30",452548,4.459,99.6,6.447,1.243,6.705,101.3677,2.789,3.906,50.48,0,109.6,13.55,3.55,61.6
"2010-12-25 00:44:00",452549,5.25,101.6,5.878,1.203,7.231,101.3694,2.793,3.861,50.67,0,109.6,13.55,3.56,63.6
"2010-12-25 00:44:30",452550,5.026,97.4,6.476,1.269,6.742,101.3726,2.802,3.876,51.15,0,109.6,13.55,3.56,59.4
"2010-12-25 00:45:00",452551,3.928,90.6,2.623,0.633,3.945,101.372,2.8,3.661,50.97,0,109.6,13.55,3.56,52.6
"2010-12-25 00:45:30",452552,5.182,96.5,6.852,1.225,6.262,101.3703,2.796,3.826,51.49,0,109.6,13.55,3.56,58.5
"2010-12-25 00:46:00",452553,5.364,97.7,6.681,1.235,6.669,101.3737,2.804,3.889,51.45,0,109.6,13.55,3.57,59.7
"2010-12-25 00:46:30",452554,5.133,97.7,6.528,1.217,6.304,101.3746,2.807,3.808,51.04,0,109.6,13.55,3.57,59.7
"2010-12-25 00:47:00",452555,5.624,101.5,5.388,1.199,7.575,101.3669,2.787,3.879,51.35,0,109.6,13.55,3.55,63.5
"2010-12-25 00:47:30",452556,5.704,101,5.975,1.125,7.182,101.357,2.762,3.812,51.36,0,109.6,13.55,3.52,63.0
"2010-12-25 00:48:00",452557,3.877,94.7,2.44,0.066,4.496,101.3499,2.744,3.754,51.57,0,109.6,13.58,3.51,56.7
"2010-12-25 00:48:30",452558,5.776,105.1,4.844,1.037,7.502,101.3454,2.732,3.822,51.85,0,109.6,13.55,3.49,67.1
"2010-12-25 00:49:00",452559,5.592,104.1,6.48,1.103,7.198,101.3418,2.723,3.872,52.21,0,109.6,13.55,3.48,66.1
"2010-12-25 00:49:30",452560,5.348,99.8,6.416,1.253,6.243,101.3406,2.72,3.816,52.43,0,109.6,13.55,3.48,61.8
"2010-12-25 00:50:00",452561,5.711,103.6,6.059,1.185,7.407,101.3412,2.721,3.815,52.13,0,109.7,13.55,3.48,65.6
"2010-12-25 00:50:30",452562,5.415,101.9,6.362,1.25,6.822,101.3421,2.724,3.789,51.72,0,109.6,13.55,3.49,63.9
"2010-12-25 00:51:00",452563,4.075,94.6,1.369,0.12,4.126,101.3423,2.724,3.611,51.56,0,109.6,13.59,3.49,56.6
"2010-12-25 00:51:30",452564,5.726,102.4,5.989,1.215,7.281,101.3438,2.728,3.816,52.1,0,109.6,13.55,3.49,64.4
"2010-12-25 00:52:00",452565,5.867,102.6,5.691,1.098,7.692,101.3432,2.727,3.824,52.06,0,109.6,13.55,3.49,64.6
"2010-12-25 00:52:30",452566,6.191,105.6,4.465,0.98,7.779,101.3441,2.729,3.788,52.06,0,109.6,13.55,3.49,67.6
"2010-12-25 00:53:00",452567,5.797,104.7,6.223,1.182,7.402,101.3438,2.728,3.781,52.18,0,109.6,13.55,3.49,66.7
"2010-12-25 00:53:30",452568,5.94,108,6.031,1.142,7.269,101.3438,2.728,3.747,52.09,0,109.6,13.55,3.49,70.0
"2010-12-25 00:54:00",452569,5.485,112.9,10.24,1.298,5.718,101.3234,2.676,3.673,52.01,0,109.6,13.55,3.44,74.9
"2010-12-25 00:54:30",452570,6.088,124.7,6.51,1.189,6.185,101.305,2.629,3.73,52.21,0,109.6,13.55,3.39,86.7
"2010-12-25 00:55:00",452571,7.986,133.9,8.02,0.807,7.358,101.2631,2.522,3.716,52.46,0,109.6,13.55,3.28,95.9
"2010-12-25 00:55:30",452572,8.49,129.3,5.043,0.827,7.717,101.2156,2.401,3.703,52.74,0,109.6,13.55,3.16,91.3
"2010-12-25 00:56:00",452573,7.968,137.7,5.272,0.552,8.09,101.1617,2.263,3.575,53.18,0,109.6,13.55,3.02,99.7
"2010-12-25 00:56:30",452574,6.561,131.2,7.021,1.047,7.12,101.115,2.144,3.451,53.55,0,109.7,13.54,2.90,93.2
"2010-12-25 00:57:00",452575,6.66,125,7.929,1.186,6.365,101.0731,2.037,3.336,53.9,0,109.6,13.54,2.80,87.0
"2010-12-25 00:57:30",452576,6.043,118.3,5.346,1.162,4.553,101.042,1.958,3.11,54.12,0,109.6,13.54,2.72,80.3
"2010-12-25 00:58:00",452577,6.969,123.6,5.408,1.091,5.576,101.0055,1.865,3.025,54.45,0,109.6,13.54,2.62,85.6
"2010-12-25 00:58:30",452578,7.466,130.7,5.636,1.094,7.613,100.9809,1.802,3.173,54.99,0,109.6,13.54,2.56,92.7
"2010-12-25 00:59:00",452579,7.529,137.5,4.443,0.822,8.19,100.9642,1.759,3.084,55.21,0,109.6,13.55,2.52,99.5
"2010-12-25 00:59:30",452580,7.421,137.7,3.969,0.53,8.06,100.9461,1.713,3.054,55.43,0,109.6,13.55,2.47,99.7
"2010-12-25 01:00:00",452581,6.644,137,4.831,1.09,7.208,100.9319,1.677,2.977,55.61,0,109.6,13.55,2.43,99.0
"2010-12-25 01:00:30",452582,5.325,134.9,4.973,1.259,4.518,100.9339,1.682,2.732,55.52,0,109.6,13.55,2.44,96.9
"2010-12-25 01:01:00",452583,5.221,131.2,3.082,1.099,4.256,100.917,1.639,2.851,55.67,0,109.6,13.55,2.40,93.2
"2010-12-25 01:01:30",452584,6.704,135.4,6.481,1.125,5.795,100.8929,1.578,2.699,55.63,0,109.6,13.55,2.34,97.4
"2010-12-25 01:02:00",452585,8,138.7,5.001,0.598,7.892,100.8652,1.507,2.827,56.02,0,109.6,13.55,2.26,100.7
"2010-12-25 01:02:30",452586,8.31,138,3.905,0.789,7.863,100.8374,1.436,2.789,56.13,0,109.6,13.55,2.19,100.0
"2010-12-25 01:03:00",452587,8.55,137,3.709,0.695,7.863,100.8131,1.374,2.711,55.96,0,109.6,13.55,2.13,99.0
"2010-12-25 01:03:30",452588,8.33,135.7,4.256,0.761,7.646,100.797,1.333,2.658,56.05,0,109.6,13.55,2.09,97.7
"2010-12-25 01:04:00",452589,8.49,136.4,3.481,0.781,7.533,100.7746,1.276,2.614,56.27,0,109.6,13.55,2.03,98.4
"2010-12-25 01:04:30",452590,8.26,140.5,3.776,0.529,7.19,100.7678,1.259,2.534,56.52,0,109.6,13.55,2.01,102.5
"2010-12-25 01:05:00",452591,8.18,139.3,3.756,0.645,7.197,100.7458,1.202,2.494,56.64,0,109.6,13.55,1.96,101.3
"2010-12-25 01:05:30",452592,8.32,136.8,3.336,0.773,6.909,100.7345,1.173,2.44,56.86,0,109.6,13.55,1.93,98.8
"2010-12-25 01:06:00",452593,8.52,136.1,3.067,0.775,7.026,100.7313,1.165,2.416,56.77,0,109.6,13.55,1.92,98.1
"2010-12-25 01:06:30",452594,8.6,137.9,4.032,0.351,6.987,100.7158,1.126,2.398,57.36,0,109.6,13.55,1.88,99.9
"2010-12-25 01:07:00",452595,8.24,139.8,3.324,0.74,7.01,100.7053,1.099,2.357,57.76,0,109.6,13.55,1.85,101.8
"2010-12-25 01:07:30",452596,8.21,139.8,3.893,0.643,6.922,100.7033,1.094,2.337,57.78,0,109.6,13.55,1.85,101.8
"2010-12-25 01:08:00",452597,8.25,141.3,3.348,0.778,7.006,100.703,1.093,2.319,57.65,0,109.6,13.55,1.85,103.3
"2010-12-25 01:08:30",452598,8.32,141.1,3.544,0.543,6.834,100.7033,1.094,2.285,57.58,0,109.6,13.55,1.85,103.1
"2010-12-25 01:09:00",452599,7.961,142.5,3.358,0.642,7.066,100.7036,1.095,2.282,58,0,109.6,13.55,1.85,104.5
"2010-12-25 01:09:30",452600,7.857,141.2,3.934,0.671,6.925,100.7019,1.09,2.258,58.17,0,109.6,13.55,1.85,103.2
"2010-12-25 01:10:00",452601,7.863,139,3.474,0.66,7.047,100.7016,1.09,2.271,58.1,0,109.6,13.55,1.85,101.0
"2010-12-25 01:10:30",452602,8.01,138.2,3.366,0.694,6.757,100.7042,1.096,2.252,58.01,0,109.5,13.54,1.85,100.2
"2010-12-25 01:11:00",452603,8.08,135.9,3.389,0.659,6.683,100.6917,1.064,2.255,57.2,0,109.6,13.54,1.82,97.9
"2010-12-25 01:11:30",452604,7.79,138.2,3.411,0.688,6.675,100.6767,1.026,2.221,57.28,0,109.6,13.54,1.78,100.2
"2010-12-25 01:12:00",452605,7.776,137.6,3.269,0.652,6.748,100.6719,1.014,2.227,57.59,0,109.6,13.54,1.77,99.6
"2010-12-25 01:12:30",452606,8.15,136.3,3.238,0.496,6.624,100.6711,1.012,2.214,57.43,0,109.6,13.54,1.77,98.3
"2010-12-25 01:13:00",452607,8.2,136.2,4.143,0.568,6.583,100.6719,1.014,2.216,57.23,0,109.6,13.54,1.77,98.2
"2010-12-25 01:13:30",452608,8.45,136.3,3.727,0.554,6.471,100.6719,1.014,2.177,57.17,0,109.6,13.54,1.77,98.3
"2010-12-25 01:14:00",452609,8.73,133.4,3.953,0.554,6.688,100.6671,1.002,2.169,56.72,0,109.6,13.54,1.76,95.4
"2010-12-25 01:14:30",452610,8.74,135.6,3.777,0.392,6.595,100.6555,0.972,2.154,56.72,0,109.6,13.54,1.73,97.6
"2010-12-25 01:15:00",452611,8.55,136.4,3.772,0.57,6.618,100.6434,0.941,2.142,56.99,0,109.6,13.54,1.70,98.4
"2010-12-25 01:15:30",452612,8.54,135.9,4.013,0.553,6.707,100.6417,0.937,2.124,57.17,0,109.6,13.54,1.69,97.9
"2010-12-25 01:16:00",452613,8.6,134.3,3.915,0.552,6.915,100.6405,0.934,2.114,57.23,0,109.6,13.55,1.69,96.3
"2010-12-25 01:16:30",452614,8.57,133.4,1.6,0.734,6.643,100.6425,0.939,2.114,57.15,0,109.6,13.55,1.69,95.4
"2010-12-25 01:17:00",452615,8.58,134.1,3.522,0.636,6.712,100.6383,0.928,2.097,57.2,0,109.6,13.55,1.68,96.1
"2010-12-25 01:17:30",452616,8.61,134.5,3.924,0.562,6.653,100.6289,0.904,2.081,57.28,0,109.6,13.55,1.66,96.5
"2010-12-25 01:18:00",452617,8.8,133.9,3.569,0.664,6.633,100.6258,0.896,2.07,57.06,0,109.6,13.55,1.65,95.9
"2010-12-25 01:18:30",452618,8.9,133.4,2.738,0.623,6.464,100.6199,0.881,2.073,56.94,0,109.5,13.55,1.64,95.4
"2010-12-25 01:19:00",452619,8.9,133.1,3.321,0.558,6.505,100.6108,0.858,2.057,56.96,0,109.6,13.55,1.61,95.1
"2010-12-25 01:19:30",452620,8.95,132.6,3.929,0.54,6.568,100.6111,0.859,2.028,57,0,109.6,13.55,1.61,94.6
"2010-12-25 01:20:00",452621,8.89,133,3.869,0.556,6.71,100.6083,0.852,2.021,57.07,0,109.6,13.55,1.61,95.0
"2010-12-25 01:20:30",452622,8.88,133,3.355,0.519,6.684,100.5916,0.809,2,57.06,0,109.5,13.55,1.56,95.0
"2010-12-25 01:21:00",452623,8.94,133.8,4.28,0.306,6.744,100.582,0.784,2,57.14,0,109.6,13.55,1.54,95.8
"2010-12-25 01:21:30",452624,8.53,136.1,3.257,0.658,6.638,100.5772,0.772,1.972,57.42,0,109.6,13.55,1.53,98.1
"2010-12-25 01:22:00",452625,8.4,137.8,2.983,0.773,6.629,100.5774,0.773,1.95,57.62,0,109.6,13.55,1.53,99.8
"2010-12-25 01:22:30",452626,8.41,138.7,2.871,0.654,6.595,100.5774,0.773,1.945,57.86,0,109.6,13.55,1.53,100.7
"2010-12-25 01:23:00",452627,8.21,138.1,3.026,0.708,6.63,100.5774,0.773,1.946,57.97,0,109.6,13.55,1.53,100.1
"2010-12-25 01:23:30",452628,8.15,136.9,2.926,0.663,6.585,100.5774,0.773,1.933,57.84,0,109.6,13.55,1.53,98.9
"2010-12-25 01:24:00",452629,8.08,136.1,3.054,0.773,6.679,100.5729,0.761,1.932,57.83,0,109.6,13.55,1.52,98.1
"2010-12-25 01:24:30",452630,8.06,136.2,2.841,0.526,6.4,100.5644,0.74,1.917,57.89,0,109.6,13.55,1.49,98.2
"2010-12-25 01:25:00",452631,7.929,134.6,3.364,0.657,6.29,100.5571,0.721,1.915,57.96,0,109.6,13.55,1.48,96.6
"2010-12-25 01:25:30",452632,7.933,135.6,3.679,0.539,6.24,100.5474,0.696,1.899,58.02,0,109.6,13.55,1.45,97.6
"2010-12-25 01:26:00",452633,7.885,136.1,2.493,0.745,6.29,100.5435,0.686,1.89,58.13,0,109.6,13.55,1.44,98.1
"2010-12-25 01:26:30",452634,7.996,134.8,3.507,0.48,6.148,100.5435,0.686,1.871,58.29,0,109.6,13.55,1.44,96.8
"2010-12-25 01:27:00",452635,8.05,133.5,3.919,0.559,6.29,100.5435,0.686,1.882,58.45,0,109.6,13.55,1.44,95.5
"2010-12-25 01:27:30",452636,7.996,132.8,3,0.753,6.179,100.5435,0.686,1.86,58.64,0,109.6,13.55,1.44,94.8
"2010-12-25 01:28:00",452637,8.18,131.6,3.075,0.766,6.171,100.5339,0.662,1.841,58.84,0,109.6,13.55,1.42,93.6
"2010-12-25 01:28:30",452638,8.19,131.6,1.916,0.755,5.973,100.5248,0.639,1.831,59.11,0,109.6,13.55,1.39,93.6
"2010-12-25 01:29:00",452639,8.06,130.9,3.505,0.671,6.133,100.5146,0.613,1.807,59.14,0,109.6,13.55,1.37,92.9
"2010-12-25 01:29:30",452640,7.966,130,3.296,0.828,5.994,100.5095,0.6,1.816,59.18,0,109.6,13.54,1.35,92.0
"2010-12-25 01:30:00",452641,7.936,128.3,5.472,0.831,5.491,100.5095,0.6,1.759,59.18,0,109.6,13.55,1.35,90.3
"2010-12-25 01:30:30",452642,6.71,123.1,6.251,1.114,3.885,100.5095,0.6,1.654,59.15,0,109.6,13.55,1.35,85.1
"2010-12-25 01:31:00",452643,7.291,125.5,5.912,1.208,4.828,100.5092,0.599,1.603,59.18,0,109.6,13.55,1.35,87.5
"2010-12-25 01:31:30",452644,8.04,130.7,4.882,0.817,7.2,100.5089,0.598,1.774,59.42,0,109.6,13.55,1.35,92.7
"2010-12-25 01:32:00",452645,8.04,133,3.108,0.758,7.212,100.5067,0.592,1.755,59.44,0,109.6,13.55,1.35,95.0
"2010-12-25 01:32:30",452646,7.985,133.4,4.507,0.649,7.432,100.5084,0.597,1.756,59.41,0,109.6,13.56,1.35,95.4
"2010-12-25 01:33:00",452647,7.829,132.9,2.945,0.831,7.163,100.5087,0.597,1.768,59.38,0,109.6,13.56,1.35,94.9
"2010-12-25 01:33:30",452648,7.761,133.5,3.367,0.849,6.913,100.5087,0.597,1.785,59.35,0,109.6,13.56,1.35,95.5
"2010-12-25 01:34:00",452649,7.288,133.3,5.083,1.112,6.22,100.5095,0.6,1.699,59.19,0,109.6,13.56,1.35,95.3
"2010-12-25 01:34:30",452650,7.12,133.8,5.317,1.084,5.994,100.5095,0.6,1.691,58.98,0,109.6,13.56,1.35,95.8
"2010-12-25 01:35:00",452651,6.818,131.5,6.217,1.216,4.806,100.5095,0.6,1.578,58.72,0,109.6,13.56,1.35,93.5
"2010-12-25 01:35:30",452652,7.553,135.4,5.32,0.882,6.813,100.5106,0.603,1.758,58.84,0,109.6,13.56,1.36,97.4
"2010-12-25 01:36:00",452653,7.739,137.6,3.551,0.774,7.325,100.5203,0.627,1.799,58.81,0,109.6,13.56,1.38,99.6
"2010-12-25 01:36:30",452654,7.799,137.3,3.806,0.544,7.253,100.5268,0.644,1.81,58.73,0,109.6,13.56,1.40,99.3
"2010-12-25 01:37:00",452655,7.642,137.2,3.39,0.682,7.256,100.5336,0.661,1.815,58.72,0,109.6,13.56,1.42,99.2
"2010-12-25 01:37:30",452656,7.404,136.6,3.661,0.91,6.609,100.5398,0.677,1.807,58.75,0,109.6,13.56,1.43,98.6
"2010-12-25 01:38:00",452657,6.529,132.9,6.35,1.161,4.87,100.5429,0.685,1.668,58.62,0,109.6,13.56,1.44,94.9
"2010-12-25 01:38:30",452658,6.582,134.1,6.786,1.213,4.983,100.5435,0.686,1.716,58.68,0,109.6,13.56,1.44,96.1
"2010-12-25 01:39:00",452659,6.805,135.6,6.021,1.175,5.866,100.5435,0.686,1.767,58.73,0,109.6,13.56,1.44,97.6
"2010-12-25 01:39:30",452660,7.281,136.7,5.322,0.86,7.042,100.5432,0.686,1.81,58.79,0,109.6,13.56,1.44,98.7
"2010-12-25 01:40:00",452661,7.306,138.1,4.417,0.871,7.333,100.5435,0.686,1.832,58.75,0,109.6,13.56,1.44,100.1
"2010-12-25 01:40:30",452662,7.332,138.3,3.33,0.767,7.181,100.5435,0.686,1.847,58.75,0,109.6,13.56,1.44,100.3
"2010-12-25 01:41:00",452663,7.374,136,3.701,0.77,7.296,100.5435,0.686,1.861,58.9,0,109.6,13.56,1.44,98.0
"2010-12-25 01:41:30",452664,7.557,133.8,3.619,0.634,6.841,100.5409,0.68,1.83,58.96,0,109.6,13.56,1.43,95.8
"2010-12-25 01:42:00",452665,7.503,133.2,3.946,0.629,6.784,100.529,0.649,1.842,59.03,0,109.6,13.56,1.40,95.2
"2010-12-25 01:42:30",452666,7.44,132.5,4.317,0.653,6.489,100.5254,0.64,1.843,59.06,0,109.6,13.56,1.39,94.5
"2010-12-25 01:43:00",452667,7.142,130.3,5.465,0.952,5.641,100.5205,0.628,1.717,58.95,0,109.6,13.56,1.38,92.3
"2010-12-25 01:43:30",452668,5.434,124.4,3.741,0.918,2.55,100.5109,0.603,1.55,58.82,0,109.6,13.56,1.36,86.4
"2010-12-25 01:44:00",452669,5.979,128.7,6.524,1.2,4.452,100.5104,0.602,1.683,58.95,0,109.6,13.56,1.36,90.7
"2010-12-25 01:44:30",452670,7.429,134.5,3.931,0.347,7.209,100.5101,0.601,1.796,59.06,0,109.6,13.56,1.36,96.5
"2010-12-25 01:45:00",452671,7.207,133.9,4.359,0.692,7.554,100.5106,0.603,1.816,59.07,0,109.6,13.56,1.36,95.9
"2010-12-25 01:45:30",452672,7.029,134.9,3.409,0.685,7.32,100.5115,0.605,1.817,59.06,0,109.6,13.56,1.36,96.9
"2010-12-25 01:46:00",452673,6.872,136.5,3.628,0.793,7.183,100.5143,0.612,1.824,59.06,0,109.6,13.56,1.37,98.5
"2010-12-25 01:46:30",452674,6.528,134.4,5.558,1.065,5.98,100.518,0.621,1.763,58.99,0,109.6,13.56,1.38,96.4
"2010-12-25 01:47:00",452675,5.002,126.5,3.891,0.962,3.298,100.5194,0.625,1.658,58.92,0,109.6,13.56,1.38,88.5
"2010-12-25 01:47:30",452676,6.055,130.1,5.774,1.235,5.026,100.5248,0.639,1.681,58.91,0,109.6,13.56,1.39,92.1
"2010-12-25 01:48:00",452677,6.713,131.8,5.418,0.985,6.341,100.5274,0.645,1.764,58.97,0,109.6,13.56,1.40,93.8
"2010-12-25 01:48:30",452678,7.084,133.9,3.859,0.579,7.235,100.5316,0.656,1.833,59.06,0,109.6,13.57,1.41,95.9
"2010-12-25 01:49:00",452679,7.003,132.2,3.725,0.65,7.129,100.533,0.66,1.836,59.08,0,109.6,13.57,1.41,94.2
"2010-12-25 01:49:30",452680,6.905,128.8,4.751,0.839,6.522,100.5268,0.644,1.826,59.11,0,109.6,13.57,1.40,90.8
"2010-12-25 01:50:00",452681,6.59,126,6.184,1.114,5.205,100.522,0.631,1.711,59.08,0,109.6,13.57,1.39,88.0